FENGYUN 1C DEB, 32101

Orbit data source: Space-Track

FENGYUN 1C DEB, 32101 is space debris in SSO originally from a launch on Mon, 10 May 1999 UTC launched from the Taiyaun Space Center, China (TSC). Fengyun 1C debris stems from the Chinese weather satellite Fengyun-1C, which was intentionally destroyed by a Chinese anti-satellite missile in 2007. This event dramatically increased the amount of space debris, with thousands of trackable fragments posing hazards to satellites and human spaceflight. The Fengyun 1C debris cloud has become a focal point in discussions about space sustainability and the need for international regulations to prevent the creation of new debris.

Loading next visibility...
Identifier
32101, 1999-025CQT
Orbit
SSO
Country
Flag of CNCN / PRC
Related business
Manufacturer
Unknown
Mission
Spacecraft
Bus & Motor
Unknown
Mass
Unknown
Launch date (UTC)
1999-05-10 (27 years ago)
Launch vehicle
Unknown
Launch site
Taiyaun Space Center, China (TSC)
Object type
Payload
Rocket body
Debris
Shape & HBR
Unknown shape, 0.1 m
Radar Cross Section
Small (<0.1 m²)

Expand to show TLE details & history
Last TLE update: 6 hours ago

TLE from 6 hours ago
0 FENGYUN 1C DEB
1 32101U 99025CQT 26236.51129269  .00001878  00000-0  11669-2 0  9995
2 32101  99.0232 138.3324 0117460 252.4783 106.3519 14.02935439967533
Epoch: 2026-08-24T12:16Z
TLE epoch observation values (Epoch: 2026-08-24T12:16:15.688Z)
Latitude
-0.00008°
Longitude
-18.5249°
Altitude
911.466 km
Speed
7.384 km/s
True Right ascension
09h 13m 19s
True Declination
0° 00' 00"
Sunlit
Object was in daylight at epoch
Visualization orbit readout
Latitude
Unknown
Longitude
Unknown
Altitude
Unknown
Speed
Unknown
Apparent Right ascension
Unknown
Apparent Declination
Unknown
Sunlit
N/A
Visualization observer readout
Local Sidereal Time
09:56:34
Azimuth
Unknown
Elevation
Unknown
Doppler factor
Unknown
Orbital elements
Apogee altitude
966.108 km
Perigee altitude
795.58 km
Semi-major axis
7,258.981 km
Eccentricity
0.01175
Inclination
99.0232°
RAAN
138.3324°
Arg. of periapsis
252.4783°
True anomaly
107.63802°
Mean anomaly
106.3519°
Eccentric anomaly
106.9955°
Mean motion
3.50937 °/min
Orbital period
102.58 mins
BSTAR
0.0011669
Loading maneuver chart data...
Computing Atmospheric mass density...

Documentation

Showing up to 5 results
|